sat.trackr.live / text

‹ back to catalog

STARLINK-5442

NORAD 54784 · 2022-175AC

PAYLOAD ACTIVE UNKNOWN

§ Identity

Operator
Country
US
Launch date
2022-12-17
Launch site
AFETR
Launch vehicle
Mass (kg)
RCS (m²)

Purposes: comms

External: N2YO · Heavens-Above · Gunter

§ Orbital elements

Epoch: 2026-09-20T11:32:48.936480Z

Period
93.85 min
Inclination
53.1608°
Eccentricity
0.0001218
Mean motion
15.34393241 rev/d
Perigee alt
461.9 km
Apogee alt
463.6 km
Semi-major
6,840.9 km
B*
4.5413e-5
RAAN
237.9525°
Arg perigee
88.2592°
Mean anomaly
271.8550°
Rev number
20,948

§ Raw data

STARLINK-54421 54784U 22175AC  26263.48112195  .00001158  00000+0  45413-4 0  99902 54784  53.1608 237.9525 0001218  88.2592 271.8550 15.34393241209488

JSON: /api/v1/satellites/54784 · /tle

For live sub-satellite position, see the globe view (requires WebGL).

§ Visibility from observer

Set your observer location to see the next 7 days of passes ≥ 10°. The values pass through the URL so the page stays shareable.

No JS? Fill the form by hand. The geolocation button needs JavaScript.